When you browse on this site, cookies collect data to enhance your experience and personalize the content and advertising you see.
Visit our Privacy Policy to learn more. By continuing to use the site, you agree to this use of cookies and data.
  • In United Kingdom
  • List of Countries
  • For 7 days
  • Water Temperature
  • Weather Map
  • Weather Widgets
  • user-avatar
    Login

    Hourly Weather Lubaczów

    Today, 3 April, Friday

    Time Temperature Precipitation Wind Pressure Humidity
    00:00 +1°C° 0 mm 4 mps 738 mmHg 61%
    01:00 0°C° 0 mm 4 mps 738 mmHg 61%
    02:00 +1°C° 0 mm 3 mps 738 mmHg 60%
    03:00 +1°C° 0 mm 3 mps 738 mmHg 60%
    04:00 0°C° 0 mm 3 mps 737 mmHg 60%
    05:00 -1°C° 0 mm 4 mps 737 mmHg 60%
    06:00 0°C° 0 mm 4 mps 737 mmHg 59%
    07:00 +1°C° 0 mm 4 mps 737 mmHg 57%
    08:00 +2°C° 0 mm 5 mps 738 mmHg 55%
    09:00 +5°C° 0 mm 5 mps 738 mmHg 51%
    10:00 +7°C° 0 mm 6 mps 738 mmHg 47%
    11:00 +9°C° 0 mm 6 mps 738 mmHg 43%
    12:00 +9°C° 0 mm 6 mps 738 mmHg 45%
    13:00 +10°C° 0 mm 7 mps 739 mmHg 46%
    14:00 +10°C° 0 mm 6 mps 739 mmHg 49%
    15:00 +10°C° 0.1 mm 6 mps 739 mmHg 51%
    16:00 +10°C° 0.1 mm 6 mps 739 mmHg 53%
    17:00 +10°C° 0.1 mm 6 mps 739 mmHg 55%
    18:00 +8°C° 0 mm 5 mps 740 mmHg 61%
    19:00 +6°C° 0 mm 4 mps 741 mmHg 67%
    20:00 +6°C° 0 mm 2 mps 741 mmHg 74%
    21:00 +5°C° 0 mm 2 mps 742 mmHg 76%
    22:00 +4°C° 0 mm 2 mps 743 mmHg 78%
    23:00 +4°C° 0 mm 2 mps 743 mmHg 80%

    Tomorrow, 4 April, Saturday

    Time Temperature Precipitation Wind Pressure Humidity
    00:00 +3°C° 0 mm 2 mps 744 mmHg 80%
    01:00 +3°C° 0 mm 2 mps 744 mmHg 81%
    02:00 +2°C° 0 mm 2 mps 745 mmHg 81%
    03:00 +2°C° 0 mm 2 mps 745 mmHg 82%
    04:00 +2°C° 0 mm 1 mps 746 mmHg 83%
    05:00 +2°C° 0 mm 1 mps 746 mmHg 83%
    06:00 +3°C° 0 mm 1 mps 747 mmHg 78%
    07:00 +4°C° 0 mm 1 mps 747 mmHg 74%
    08:00 +5°C° 0 mm 1 mps 748 mmHg 69%
    09:00 +7°C° 0 mm 1 mps 748 mmHg 62%
    10:00 +7°C° 0 mm 2 mps 748 mmHg 54%
    11:00 +9°C° 0 mm 2 mps 748 mmHg 47%
    12:00 +9°C° 0 mm 2 mps 749 mmHg 46%
    13:00 +10°C° 0 mm 2 mps 749 mmHg 44%
    14:00 +10°C° 0 mm 2 mps 749 mmHg 43%
    15:00 +10°C° 0 mm 2 mps 749 mmHg 45%
    16:00 +10°C° 0 mm 2 mps 749 mmHg 47%
    17:00 +10°C° 0 mm 2 mps 749 mmHg 49%
    18:00 +8°C° 0 mm 2 mps 750 mmHg 56%
    19:00 +7°C° 0 mm 2 mps 751 mmHg 63%
    20:00 +5°C° 0 mm 2 mps 751 mmHg 70%
    21:00 +5°C° 0 mm 2 mps 752 mmHg 71%
    22:00 +5°C° 0 mm 1 mps 752 mmHg 72%
    23:00 +5°C° 0 mm 1 mps 753 mmHg 74%

    Day after tomorrow, 5 April, Sunday

    Time Temperature Precipitation Wind Pressure Humidity
    00:00 +4°C° 0 mm 1 mps 753 mmHg 75%
    01:00 +4°C° 0 mm 1 mps 753 mmHg 76%
    02:00 +4°C° 0 mm 1 mps 754 mmHg 76%
    03:00 +3°C° 0 mm 1 mps 754 mmHg 77%
    04:00 +3°C° 0 mm 1 mps 754 mmHg 78%
    05:00 +3°C° 0 mm 1 mps 754 mmHg 79%
    06:00 +4°C° 0 mm 1 mps 755 mmHg 75%
    07:00 +4°C° 0 mm 2 mps 755 mmHg 71%
    08:00 +5°C° 0 mm 2 mps 755 mmHg 67%
    09:00 +7°C° 0 mm 3 mps 756 mmHg 60%
    10:00 +8°C° 0 mm 3 mps 756 mmHg 52%
    11:00 +10°C° 0 mm 4 mps 756 mmHg 45%
    12:00 +10°C° 0 mm 4 mps 756 mmHg 43%
    13:00 +11°C° 0 mm 4 mps 756 mmHg 41%
    14:00 +12°C° 0 mm 4 mps 756 mmHg 39%
    15:00 +12°C° 0 mm 4 mps 756 mmHg 40%
    16:00 +11°C° 0 mm 4 mps 755 mmHg 41%
    17:00 +11°C° 0 mm 4 mps 755 mmHg 42%
    18:00 +10°C° 0 mm 4 mps 755 mmHg 48%
    19:00 +7°C° 0 mm 4 mps 755 mmHg 53%
    20:00 +7°C° 0 mm 3 mps 756 mmHg 59%
    21:00 +5°C° 0 mm 4 mps 756 mmHg 58%
    22:00 +5°C° 0 mm 4 mps 756 mmHg 58%
    23:00 +4°C° 0 mm 4 mps 756 mmHg 58%

    6 April, Monday

    Time Temperature Precipitation Wind Pressure Humidity
    00:00 +4°C° 0 mm 4 mps 756 mmHg 58%
    01:00 +3°C° 0 mm 4 mps 756 mmHg 59%
    02:00 +3°C° 0 mm 4 mps 756 mmHg 60%
    03:00 +3°C° 0 mm 4 mps 756 mmHg 61%
    04:00 +3°C° 0 mm 4 mps 756 mmHg 63%
    05:00 +1°C° 0 mm 4 mps 756 mmHg 64%
    06:00 +3°C° 0 mm 4 mps 756 mmHg 62%
    07:00 +3°C° 0 mm 5 mps 756 mmHg 60%
    08:00 +5°C° 0 mm 5 mps 756 mmHg 58%
    09:00 +7°C° 0 mm 5 mps 756 mmHg 53%
    10:00 +8°C° 0 mm 5 mps 756 mmHg 48%
    11:00 +10°C° 0 mm 5 mps 756 mmHg 43%
    12:00 +12°C° 0 mm 5 mps 756 mmHg 41%
    13:00 +13°C° 0 mm 4 mps 756 mmHg 40%
    14:00 +14°C° 0 mm 4 mps 756 mmHg 39%
    15:00 +14°C° 0 mm 4 mps 756 mmHg 40%
    16:00 +14°C° 0 mm 3 mps 755 mmHg 41%
    17:00 +14°C° 0 mm 3 mps 755 mmHg 42%
    18:00 +12°C° 0 mm 3 mps 755 mmHg 48%
    19:00 +10°C° 0 mm 3 mps 755 mmHg 54%
    20:00 +9°C° 0 mm 3 mps 755 mmHg 59%
    21:00 +8°C° 0 mm 3 mps 755 mmHg 59%
    22:00 +7°C° 0 mm 3 mps 755 mmHg 59%
    23:00 +5°C° 0 mm 3 mps 756 mmHg 59%

    7 April, Tuesday

    Time Temperature Precipitation Wind Pressure Humidity
    00:00 +5°C° 0 mm 3 mps 756 mmHg 60%
    01:00 +4°C° 0 mm 3 mps 756 mmHg 62%
    02:00 +5°C° 0 mm 2 mps 756 mmHg 64%
    03:00 +4°C° 0 mm 2 mps 756 mmHg 64%
    04:00 +4°C° 0 mm 2 mps 756 mmHg 63%
    05:00 +4°C° 0 mm 2 mps 756 mmHg 63%
    06:00 +5°C° 0 mm 2 mps 756 mmHg 60%
    07:00 +6°C° 0 mm 2 mps 756 mmHg 57%
    08:00 +8°C° 0 mm 2 mps 756 mmHg 54%
    09:00 +9°C° 0 mm 2 mps 756 mmHg 50%
    10:00 +12°C° 0 mm 2 mps 756 mmHg 45%
    11:00 +14°C° 0 mm 2 mps 756 mmHg 40%
    12:00 +15°C° 0 mm 2 mps 756 mmHg 38%
    13:00 +16°C° 0 mm 2 mps 756 mmHg 36%
    14:00 +18°C° 0 mm 2 mps 756 mmHg 34%
    15:00 +17°C° 0 mm 2 mps 756 mmHg 34%
    16:00 +18°C° 0 mm 1 mps 755 mmHg 34%
    17:00 +18°C° 0 mm 1 mps 755 mmHg 35%
    18:00 +15°C° 0 mm 1 mps 755 mmHg 40%
    19:00 +14°C° 0 mm 1 mps 755 mmHg 45%
    20:00 +12°C° 0 mm 1 mps 755 mmHg 51%
    21:00 +11°C° 0 mm 1 mps 755 mmHg 52%
    22:00 +10°C° 0 mm 1 mps 755 mmHg 53%
    23:00 +10°C° 0 mm 1 mps 755 mmHg 54%

    8 April, Wednesday

    Time Temperature Precipitation Wind Pressure Humidity
    00:00 +9°C° 0 mm 1 mps 755 mmHg 54%
    01:00 +8°C° 0 mm 1 mps 755 mmHg 55%
    02:00 +8°C° 0 mm 1 mps 755 mmHg 56%
    03:00 +8°C° 0 mm 1 mps 755 mmHg 57%
    04:00 +7°C° 0 mm 1 mps 755 mmHg 58%
    05:00 +6°C° 0 mm 0 mps 755 mmHg 59%
    06:00 +7°C° 0 mm 0 mps 755 mmHg 57%
    07:00 +8°C° 0 mm 0 mps 755 mmHg 56%
    08:00 +10°C° 0 mm 0 mps 755 mmHg 54%
    09:00 +12°C° 0 mm 1 mps 755 mmHg 50%
    10:00 +14°C° 0 mm 1 mps 755 mmHg 45%
    11:00 +16°C° 0 mm 1 mps 755 mmHg 41%
    12:00 +18°C° 0 mm 1 mps 754 mmHg 38%
    13:00 +18°C° 0 mm 2 mps 754 mmHg 35%
    14:00 +19°C° 0 mm 2 mps 754 mmHg 31%
    15:00 +18°C° 0 mm 2 mps 753 mmHg 33%
    16:00 +18°C° 0 mm 2 mps 753 mmHg 34%
    17:00 +18°C° 0 mm 2 mps 753 mmHg 35%
    18:00 +16°C° 0 mm 2 mps 753 mmHg 41%
    19:00 +15°C° 0 mm 2 mps 753 mmHg 48%
    20:00 +13°C° 0 mm 1 mps 753 mmHg 54%
    21:00 +12°C° 0 mm 1 mps 753 mmHg 60%
    22:00 +12°C° 0 mm 1 mps 753 mmHg 66%
    23:00 +11°C° 0 mm 1 mps 753 mmHg 73%
    Show more